Tracking 28052 objects as of 22-Sep-2023
HD Live streaming from Space Station
objects crossing your sky now

GALAXY 1R

Track GALAXY 1R now!
GALAXY 1R is classified as:


NORAD ID: 23016
Int'l Code: 1994-013A
Perigee: 36,080.7 km
Apogee: 36,100.3 km
Inclination: 11.7 °
Period: 1,451.3 minutes
Semi major axis: 42461 km
RCS: 8.3555 m2 (large)
Launch date: February 19, 1994
Source: United States (US)
Launch site: AIR FORCE EASTERN TEST RANGE (AFETR)

24 C-band; North America, Caribbean.
Your satellite tracking list
Your tracking list is empty




NASA's NSSDC Master Catalog

Two Line Element Set (TLE):
1 23016U 94013A   23264.74354891 -.00000250  00000-0  00000+0 0  9994
2 23016  11.6872  29.1228 0002307 119.9423 239.3889  0.99222429107306
Source of the keplerian elements: AFSPC